CAPE
1188 1427 2430 2283 1793 2212 2127 1841 1680 1607 1555 1510 1195 1017 1617 1562 1397 1288 1146 1297 1087 1110 1280 1279 1119 1078 846 942 1142 1404 1443 1404 1467 1270 1497 1442 1572 1583 1426 1235 1151 1073 1165
1387 1286 2622 2366 1786 1596 1636 1180 1471 1515 1579 1456 1496 1114 1277 1603 1546 1303 1124 1270 1385 1259 1232 1242 1250 1090 936 976 1126 1164 1336 1352 1361 1205 1233 1675 1426 1416 1073 1273 1068 994 877
1196 1463 1603 2531 2208 1683 1461 1298 1375 1340 1456 1294 1612 1424 1434 1521 1453 1613 1542 1541 1041 1045 1190 1152 1171 1104 939 1094 1015 1604 1542 1200 898 764 1003 644 972 1078 882 971 1027 790 602
111 1395 2085 2356 2506 2312 1835 1948 1599 1851 1781 1847 1791 1514 1540 1491 1470 1433 1250 1178 952 953 993 953 1137 1139 939 929 1053 1541 1447 1226 971 746 644 607 552 992 950 1076 863 734 650
41 963 2252 2681 2630 2363 1978 2114 2175 2074 1914 1989 1813 1344 1313 1242 1192 1213 1219 1262 1262 1195 1027 1498 1502 1321 1119 949 733 1195 1387 1222 1005 681 637 464 419 755 982 973 676 476 310
79 802 2324 2808 2589 2460 2110 1587 1952 1857 1554 1445 1430 1425 1324 1320 1304 1072 1102 1369 1318 1384 1366 1582 1617 1276 1378 1013 730 812 1263 1046 747 855 659 679 718 881 884 494 149 91 25
1 830 1913 2137 1976 1920 1808 1605 1199 1104 864 947 1037 1319 1612 1075 932 824 1202 749 1012 1152 1274 1294 1089 1231 965 1429 847 745 1101 917 501 448 386 359 952 987 462 156 1 0 0
0 832 1333 1921 1652 1396 1046 733 734 673 808 786 807 907 1222 1181 1246 1221 770 585 656 802 856 1014 1079 902 944 1068 1126 772 694 622 232 90 274 365 774 762 324 93 0 0 0
0 0 1011 698 1069 1066 928 892 784 494 458 690 336 286 615 1320 659 435 981 535 539 645 598 798 748 794 964 853 1116 776 506 332 152 154 165 225 702 725 266 10 0 0 0
0 0 0 0 0 0 40 293 147 551 196 0 57 0 69 0 58 0 439 262 731 725 534 839 597 552 876 921 1090 902 485 177 67 63 71 113 386 295 333 0 0 0 4
0 0 0 0 0 0 0 0 0 0 0 0 0 0 0 0 0 0 0 191 244 698 332 799 547 601 867 1044 999 863 573 248 19 29 211 198 348 332 189 12 0 0 1
0 0 0 0 0 0 0 0 0 0 0 0 0 0 0 0 0 0 0 0 0 17 11 41 321 661 723 615 708 912 540 270 139 167 216 311 380 325 238 141 0 0 0
0 0 0 0 0 0 0 0 0 0 0 0 0 0 0 0 0 0 0 0 0 0 0 0 0 0 23 353 655 761 646 478 378 366 264 598 699 279 167 297 33 0 0
0 0 0 0 0 0 0 0 0 0 0 0 0 0 0 0 0 0 0 0 0 0 0 0 0 0 0 252 438 555 569 394 277 279 437 611 554 206 101 74 179 0 0
0 0 0 0 0 0 0 0 0 0 0 0 0 0 0 0 0 0 0 0 0 0 0 0 0 0 0 0 46 505 619 644 498 387 423 531 513 350 136 137 331 16 0
0 0 0 0 0 0 0 0 0 0 0 0 0 0 0 0 0 0 0 0 0 0 0 0 0 0 0 0 0 93 539 617 453 517 390 267 494 405 193 134 343 83 8
0 0 0 0 0 0 0 0 0 0 0 0 0 0 0 0 0 0 0 0 0 0 0 0 0 0 0 0 0 0 56 393 329 316 479 317 198 372 340 351 535 211 52
0 0 0 0 0 0 0 0 0 0 0 0 0 0 0 0 0 0 0 0 0 0 0 0 0 0 0 0 0 0 0 181 313 271 254 397 296 110 221 331 489 442 142
0 0 0 0 0 0 0 0 0 0 0 0 0 0 0 0 0 0 0 0 0 0 0 0 0 0 0 0 0 0 0 0 256 281 207 170 300 321 166 206 285 365 524
0 0 0 0 0 0 0 0 0 0 0 0 0 0 0 0 0 0 0 0 0 0 0 0 0 0 0 0 0 0 0 0 0 68 226 205 197 222 242 194 72 70 401
0 0 0 0 0 0 0 0 0 0 0 0 0 0 0 0 0 0 0 0 0 0 0 0 0 0 0 0 0 0 0 0 0 7 38 220 244 253 208 204 173 31 49
0 0 0 0 0 0 0 0 0 0 0 0 0 0 0 0 0 0 0 0 0 0 0 0 0 0 0 0 0 0 0 0 0 0 5 66 178 308 175 177 124 114 25
0 0 0 0 0 0 0 0 0 0 0 0 0 0 0 0 0 0 0 0 0 0 0 0 0 0 0 0 2 10 0 0 0 0 13 13 55 140 169 85 94 91 60
0 0 0 0 0 0 0 0 0 0 0 0 0 0 0 0 0 0 0 0 0 0 0 0 0 0 0 0 0 11 22 47 0 0 1 14 5 100 104 137 78 52 25
0 0 0 0 0 0 0 0 0 0 0 0 0 0 0 0 0 0 0 0 0 0 0 0 0 0 0 0 6 42 1 0 16 89 16 29 48 14 113 121 98 82 97
0 0 0 0 0 0 0 0 0 0 0 0 0 0 0 0 0 0 0 0 0 0 0 0 0 0 6 21 13 25 16 18 17 80 15 70 40 47 19 142 125 94 57
CIN
-43 -65 -17 -0 -3 -0 -0 -0 -0 -0 -0 -0 -0 -1 -0 -0 -0 -0 -0 -0 -0 -0 -0 -0 -0 -0 -3 -1 -5 -1 -3 -1 -3 -2 -1 -1 -0 -2 -0 -1 -0 -0 -0
-34 -60 -19 -1 -2 -2 -2 -3 -2 -0 -0 -0 -0 -0 -0 -0 -0 -0 -0 -0 -0 -0 -0 -1 -0 -0 -3 -0 -1 -2 -3 -1 -3 -8 -6 -1 -2 -0 -2 -1 -0 -0 -0
-20 -11 -36 -1 -0 -0 -0 -0 -0 -0 -0 -0 -0 -0 -0 -0 -0 -0 -0 -0 -0 -0 -0 -1 -2 -2 -4 -1 -3 -1 -1 -9 -15 -17 -11 -21 -13 -3 -7 -3 -1 -0 -0
-136 -41 -11 -0 -0 -0 -0 -0 -0 -0 -0 -0 -0 -0 -0 -0 -0 -0 -0 -0 -0 -0 -0 -5 -2 -2 -4 -5 -3 -2 -5 -11 -20 -25 -31 -12 -9 -7 -2 -3 -2 -0 -4
-95 -76 -0 -0 -0 -0 -0 -0 -0 -0 -0 -0 -0 -0 -0 -1 -3 -0 -0 -0 -0 -0 -2 -0 -0 -2 -5 -5 -7 -5 -7 -16 -26 -34 -12 -43 -33 -10 -0 -0 -0 -6 -15
-91 -75 -0 -0 -0 -0 -0 -3 -0 -0 -2 -5 -4 -2 -1 -1 -0 -4 -6 -0 -1 -1 -2 -0 -0 -3 -1 -9 -15 -6 -8 -21 -49 -30 -32 -23 -43 -10 -6 -1 -7 -16 -53
-1 -74 -4 -0 -0 -3 -0 -0 -9 -14 -42 -37 -29 -10 -2 -11 -17 -35 -6 -52 -14 -9 -6 -9 -18 -4 -7 -1 -18 -25 -7 -21 -60 -30 -11 -9 -32 -11 -7 -16 -10 -0 -0
-0 -85 -45 -6 -11 -15 -38 -86 -88 -115 -71 -74 -65 -35 -12 -9 -5 -4 -46 -101 -88 -39 -36 -24 -13 -35 -33 -9 -4 -31 -27 -29 -106 -146 -66 -41 -27 -7 -5 -31 -0 -0 -0
-0 -0 -69 -139 -84 -65 -70 -74 -103 -216 -237 -149 -286 -288 -136 -10 -85 -167 -10 -127 -125 -72 -88 -36 -42 -34 -21 -43 -13 -28 -77 -115 -177 -200 -139 -58 -21 -10 -4 -23 -0 -0 -0
-0 -0 -0 -0 -0 -0 -566 -346 -414 -191 -357 -0 -399 -0 -353 -0 -360 -0 -166 -250 -56 -49 -108 -25 -61 -72 -15 -14 -10 -10 -69 -126 -215 -186 -165 -77 -6 -7 -0 -0 -0 -0 -1
-0 -0 -0 -0 -0 -0 -0 -0 -0 -0 -0 -0 -0 -0 -0 -0 -0 -0 -0 -289 -249 -76 -182 -34 -76 -67 -11 -0 -0 -0 -17 -73 -287 -37 -111 -14 -1 -12 -21 -41 -0 -0 -0
-0 -0 -0 -0 -0 -0 -0 -0 -0 -0 -0 -0 -0 -0 -0 -0 -0 -0 -0 -0 -0 -447 -264 -286 -169 -76 -54 -60 -19 -0 -28 -80 -127 -86 -55 -42 -39 -30 -35 -89 -0 -0 -1
-0 -0 -0 -0 -0 -0 -0 -0 -0 -0 -0 -0 -0 -0 -0 -0 -0 -0 -0 -0 -0 -0 -0 -0 -0 -0 -152 -141 -46 -25 -27 -29 -28 -19 -40 -3 -3 -77 -78 -30 -92 -0 -0
-0 -0 -0 -0 -0 -0 -0 -0 -0 -0 -0 -0 -0 -0 -0 -0 -0 -0 -0 -0 -0 -0 -0 -0 -0 -0 -0 -192 -120 -58 -32 -66 -87 -65 -7 -2 -10 -52 -152 -48 -38 -0 -0
-0 -0 -0 -0 -0 -0 -0 -0 -0 -0 -0 -0 -0 -0 -0 -0 -0 -0 -0 -0 -0 -0 -0 -0 -0 -0 -0 -0 -159 -110 -51 -15 -27 -45 -18 -10 -12 -37 -43 -73 -13 -0 -0
-0 -0 -0 -0 -0 -0 -0 -0 -0 -0 -0 -0 -0 -0 -0 -0 -0 -0 -0 -0 -0 -0 -0 -0 -0 -0 -0 -0 -0 -106 -79 -34 -39 -27 -29 -72 -22 -31 -51 -30 -6 -47 -0
-0 -0 -0 -0 -0 -0 -0 -0 -0 -0 -0 -0 -0 -0 -0 -0 -0 -0 -0 -0 -0 -0 -0 -0 -0 -0 -0 -0 -0 -0 -162 -104 -84 -77 -19 -53 -91 -36 -40 -10 -0 -25 -0
-0 -0 -0 -0 -0 -0 -0 -0 -0 -0 -0 -0 -0 -0 -0 -0 -0 -0 -0 -0 -0 -0 -0 -0 -0 -0 -0 -0 -0 -0 -0 -266 -158 -112 -96 -32 -63 -140 -85 -24 -0 -0 -29
-0 -0 -0 -0 -0 -0 -0 -0 -0 -0 -0 -0 -0 -0 -0 -0 -0 -0 -0 -0 -0 -0 -0 -0 -0 -0 -0 -0 -0 -0 -0 -0 -182 -170 -160 -131 -69 -41 -101 -82 -9 -2 -0
-0 -0 -0 -0 -0 -0 -0 -0 -0 -0 -0 -0 -0 -0 -0 -0 -0 -0 -0 -0 -0 -0 -0 -0 -0 -0 -0 -0 -0 -0 -0 -0 -0 -164 -154 -146 -112 -89 -57 -91 -135 -70 -2
-0 -0 -0 -0 -0 -0 -0 -0 -0 -0 -0 -0 -0 -0 -0 -0 -0 -0 -0 -0 -0 -0 -0 -0 -0 -0 -0 -0 -0 -0 -0 -0 -0 -0 -208 -91 -70 -62 -85 -94 -102 -129 -85
-0 -0 -0 -0 -0 -0 -0 -0 -0 -0 -0 -0 -0 -0 -0 -0 -0 -0 -0 -0 -0 -0 -0 -0 -0 -0 -0 -0 -0 -0 -0 -0 -0 -0 -0 -163 -85 -38 -82 -106 -103 -135 -126
-0 -0 -0 -0 -0 -0 -0 -0 -0 -0 -0 -0 -0 -0 -0 -0 -0 -0 -0 -0 -0 -0 -0 -0 -0 -0 -0 -0 -2 -3 -0 -0 -0 -0 -2 -2 -83 -115 -110 -140 -119 -143 -115
-0 -0 -0 -0 -0 -0 -0 -0 -0 -0 -0 -0 -0 -0 -0 -0 -0 -0 -0 -0 -0 -0 -0 -0 -0 -0 -0 -0 -0 -8 -5 -4 -0 -0 -0 -0 -2 -2 -111 -136 -181 -179 -194
-0 -0 -0 -0 -0 -0 -0 -0 -0 -0 -0 -0 -0 -0 -0 -0 -0 -0 -0 -0 -0 -0 -0 -0 -0 -0 -0 -0 -6 -9 -4 -0 -8 -0 -0 -0 -0 -0 -3 -158 -155 -6 -167
-0 -0 -0 -0 -0 -0 -0 -0 -0 -0 -0 -0 -0 -0 -0 -0 -0 -0 -0 -0 -0 -0 -0 -0 -0 -0 -2 -2 -2 -21 -7 -0 -1 -3 -3 -1 -15 -0 -0 -3 -2 -3 -4
Wind_Speed
12 11 7 8 8 10 10 8 9 10 8 9 11 10 11 9 8 7 8 6 5 5 6 10 12 15 17 18 17 14 16 16 15 14 16 15 16 15 14 12 14 12 17
9 10 9 8 9 9 9 9 9 7 7 8 11 12 13 11 12 10 8 7 7 4 3 5 7 10 11 16 21 19 19 17 18 15 16 16 16 15 16 17 15 15 18
4 8 7 7 8 7 7 8 9 11 9 12 12 13 16 15 13 10 12 10 8 6 6 5 5 7 8 11 21 22 23 22 19 15 12 12 13 16 20 20 15 15 17
5 3 4 9 11 11 12 11 11 12 15 14 15 15 16 14 13 10 7 8 9 9 8 9 9 7 9 11 19 22 24 25 25 20 13 15 14 18 20 18 15 14 14
nan 6 4 11 12 17 15 15 15 15 17 17 16 17 16 18 18 14 13 10 9 8 11 12 11 13 14 14 17 21 25 26 27 23 18 18 16 18 20 20 17 15 12
nan 10 10 15 21 25 22 19 18 20 20 20 19 20 22 19 20 19 19 15 12 10 11 14 15 18 17 19 20 21 23 25 28 25 24 24 22 22 20 21 20 nan nan
nan 14 15 23 24 24 26 25 23 21 21 21 20 20 21 23 23 23 24 18 15 13 16 17 17 18 20 23 22 23 24 25 27 32 32 31 29 28 25 22 nan nan nan
nan 20 23 29 31 27 28 28 27 26 24 22 22 20 20 22 28 25 28 23 20 18 16 18 20 21 23 22 25 27 27 29 32 nan 38 38 35 31 26 nan nan nan nan
nan nan 28 31 33 32 29 28 25 25 25 23 23 20 18 26 29 26 30 27 24 22 21 20 22 22 21 24 31 34 35 32 30 34 43 42 34 32 27 nan nan nan nan
nan nan nan nan nan nan nan 29 25 24 25 nan nan nan nan nan nan nan 29 26 23 23 23 25 25 25 24 27 34 39 40 38 nan nan nan 38 31 32 28 nan nan nan nan
nan nan nan nan nan nan nan nan nan nan nan nan nan nan nan nan nan nan nan 23 25 24 23 27 30 32 33 30 31 36 40 34 nan nan 34 37 30 29 27 nan nan nan nan
nan nan nan nan nan nan nan nan nan nan nan nan nan nan nan nan nan nan nan nan nan nan nan nan 37 38 42 37 34 33 36 35 35 35 35 44 52 24 21 24 nan nan nan
nan nan nan nan nan nan nan nan nan nan nan nan nan nan nan nan nan nan nan nan nan nan nan nan nan nan nan 43 39 32 34 36 34 34 30 41 41 42 19 21 nan nan nan
nan nan nan nan nan nan nan nan nan nan nan nan nan nan nan nan nan nan nan nan nan nan nan nan nan nan nan 44 45 39 37 39 35 30 27 37 38 37 30 nan 25 nan nan
nan nan nan nan nan nan nan nan nan nan nan nan nan nan nan nan nan nan nan nan nan nan nan nan nan nan nan nan nan 44 41 40 39 36 30 30 33 32 36 28 25 nan nan
nan nan nan nan nan nan nan nan nan nan nan nan nan nan nan nan nan nan nan nan nan nan nan nan nan nan nan nan nan nan 46 43 42 37 38 33 32 35 28 30 27 nan nan
nan nan nan nan nan nan nan nan nan nan nan nan nan nan nan nan nan nan nan nan nan nan nan nan nan nan nan nan nan nan nan 46 47 42 41 37 38 35 34 25 25 36 nan
nan nan nan nan nan nan nan nan nan nan nan nan nan nan nan nan nan nan nan nan nan nan nan nan nan nan nan nan nan nan nan 51 47 46 44 42 40 40 36 32 27 31 31
nan nan nan nan nan nan nan nan nan nan nan nan nan nan nan nan nan nan nan nan nan nan nan nan nan nan nan nan nan nan nan nan 50 46 46 43 40 41 41 36 30 26 29
nan nan nan nan nan nan nan nan nan nan nan nan nan nan nan nan nan nan nan nan nan nan nan nan nan nan nan nan nan nan nan nan nan nan 52 52 46 44 40 38 nan nan 23
nan nan nan nan nan nan nan nan nan nan nan nan nan nan nan nan nan nan nan nan nan nan nan nan nan nan nan nan nan nan nan nan nan nan nan 57 52 48 46 42 38 nan nan
nan nan nan nan nan nan nan nan nan nan nan nan nan nan nan nan nan nan nan nan nan nan nan nan nan nan nan nan nan nan nan nan nan nan nan nan 59 54 51 44 38 33 nan
nan nan nan nan nan nan nan nan nan nan nan nan nan nan nan nan nan nan nan nan nan nan nan nan nan nan nan nan nan nan nan nan nan nan nan nan nan 64 56 nan nan nan nan
nan nan nan nan nan nan nan nan nan nan nan nan nan nan nan nan nan nan nan nan nan nan nan nan nan nan nan nan nan nan nan nan nan nan nan nan nan 64 57 59 nan nan nan
nan nan nan nan nan nan nan nan nan nan nan nan nan nan nan nan nan nan nan nan nan nan nan nan nan nan nan nan nan nan nan nan nan nan nan nan nan nan 60 59 nan nan nan
nan nan nan nan nan nan nan nan nan nan nan nan nan nan nan nan nan nan nan nan nan nan nan nan nan nan nan nan nan nan nan nan nan nan nan nan nan nan nan 66 60 nan nan
Wind_Direction
47 37 8 39 44 46 37 23 24 9 21 22 24 17 20 0 358 333 320 309 317 288 249 219 218 224 228 228 227 230 234 229 238 256 259 264 268 263 258 264 274 268 264
2 7 354 29 40 48 40 31 34 2 358 341 347 341 347 2 2 352 345 336 308 302 274 257 233 218 230 248 240 240 246 239 246 251 266 264 259 245 249 253 269 265 267
332 336 359 12 28 24 7 2 355 349 338 332 344 348 347 349 356 350 7 3 342 319 297 275 262 251 247 255 256 253 252 242 244 253 274 278 258 256 256 264 277 284 272
207 255 32 3 11 2 348 338 340 340 331 330 332 337 337 344 347 340 333 348 3 349 319 304 285 276 283 277 270 266 261 250 250 258 259 266 265 263 265 268 273 280 275
nan 262 304 323 345 345 338 320 310 313 316 321 323 321 327 339 339 332 326 329 1 18 31 14 335 306 301 292 294 281 272 262 259 258 250 267 271 275 276 265 267 275 279
nan 308 315 313 329 326 323 315 305 296 292 297 303 306 310 318 326 335 329 325 329 338 356 3 6 2 337 319 310 300 287 275 268 264 257 258 265 276 277 274 267 nan nan
nan 310 322 315 315 316 315 312 307 300 294 295 300 311 313 316 319 323 326 317 315 314 324 331 336 343 348 355 335 316 307 289 273 258 251 249 259 276 277 274 nan nan nan
nan 322 319 315 313 311 312 310 307 303 305 304 305 307 316 321 319 315 317 315 307 304 307 311 319 326 333 341 349 335 312 292 271 nan 250 246 257 265 270 nan nan nan nan
nan nan 325 323 319 310 314 312 307 296 289 290 279 279 295 324 312 306 317 310 312 313 306 306 311 313 321 325 334 334 325 311 304 288 267 232 250 260 263 nan nan nan nan
nan nan nan nan nan nan nan 310 303 305 293 nan nan nan nan nan nan nan 299 302 310 311 306 308 303 309 308 319 325 322 320 320 nan nan nan 232 236 247 256 nan nan nan nan
nan nan nan nan nan nan nan nan nan nan nan nan nan nan nan nan nan nan nan 280 284 296 297 305 306 300 302 309 314 315 316 309 nan nan 317 285 238 241 255 nan nan nan nan
nan nan nan nan nan nan nan nan nan nan nan nan nan nan nan nan nan nan nan nan nan nan nan nan 299 303 305 303 302 310 302 307 310 309 317 336 333 240 254 272 nan nan nan
nan nan nan nan nan nan nan nan nan nan nan nan nan nan nan nan nan nan nan nan nan nan nan nan nan nan nan 302 301 295 299 302 303 306 313 334 325 327 251 276 nan nan nan
nan nan nan nan nan nan nan nan nan nan nan nan nan nan nan nan nan nan nan nan nan nan nan nan nan nan nan 301 304 304 304 302 297 299 307 336 336 328 313 nan 279 nan nan
nan nan nan nan nan nan nan nan nan nan nan nan nan nan nan nan nan nan nan nan nan nan nan nan nan nan nan nan nan 299 300 299 300 296 290 316 325 327 325 288 281 nan nan
nan nan nan nan nan nan nan nan nan nan nan nan nan nan nan nan nan nan nan nan nan nan nan nan nan nan nan nan nan nan 295 293 288 289 285 284 307 316 326 323 281 nan nan
nan nan nan nan nan nan nan nan nan nan nan nan nan nan nan nan nan nan nan nan nan nan nan nan nan nan nan nan nan nan nan 291 289 287 286 283 285 305 315 310 316 290 nan
nan nan nan nan nan nan nan nan nan nan nan nan nan nan nan nan nan nan nan nan nan nan nan nan nan nan nan nan nan nan nan 283 284 286 284 279 279 280 294 308 306 305 271
nan nan nan nan nan nan nan nan nan nan nan nan nan nan nan nan nan nan nan nan nan nan nan nan nan nan nan nan nan nan nan nan 279 281 282 282 280 272 276 292 300 304 282
nan nan nan nan nan nan nan nan nan nan nan nan nan nan nan nan nan nan nan nan nan nan nan nan nan nan nan nan nan nan nan nan nan nan 277 275 274 276 264 274 nan nan 293
nan nan nan nan nan nan nan nan nan nan nan nan nan nan nan nan nan nan nan nan nan nan nan nan nan nan nan nan nan nan nan nan nan nan nan 265 266 266 264 253 263 nan nan
nan nan nan nan nan nan nan nan nan nan nan nan nan nan nan nan nan nan nan nan nan nan nan nan nan nan nan nan nan nan nan nan nan nan nan nan 257 256 257 253 250 259 nan
nan nan nan nan nan nan nan nan nan nan nan nan nan nan nan nan nan nan nan nan nan nan nan nan nan nan nan nan nan nan nan nan nan nan nan nan nan 251 247 nan nan nan nan
nan nan nan nan nan nan nan nan nan nan nan nan nan nan nan nan nan nan nan nan nan nan nan nan nan nan nan nan nan nan nan nan nan nan nan nan nan 239 240 238 nan nan nan
nan nan nan nan nan nan nan nan nan nan nan nan nan nan nan nan nan nan nan nan nan nan nan nan nan nan nan nan nan nan nan nan nan nan nan nan nan nan 233 230 nan nan nan
nan nan nan nan nan nan nan nan nan nan nan nan nan nan nan nan nan nan nan nan nan nan nan nan nan nan nan nan nan nan nan nan nan nan nan nan nan nan nan 218 221 nan nan